Weather in Putbus

Germany     54°21′21″N   13°28′32″E
В апреле 2022 года жителям России запретили посещать сайт meteo.paraplan.net по решению Генеральной прокуратуры. Аудитория сайта уменьшилась в 10 раз. Владельцы сайта не видят смысла в поддержке погодного сервера в таких условиях. Сайт будет закрыт в октябре.
temp.,
°C
wind,
m/s
gust,
m/s
humid.,
%
clouds,
%
prec.,
mm/h
press.,
hPa
HPBL,
m
4 october, tue
tue423:00+13nw611847 0.0 1019709
02:00+12nw6108995 0.0 1019582
05:00+12nw699038 0.0 1019483
08:00+11wnw589288 0.0 1019351
11:00+14wnw577996 0.0 1020638
14:00+16w576899 0.0 1019318
17:00+16wsw4666100 0.0 1018279
20:00+14sw487933 0.0 1018122
5 october, wed
wed523:00+13sw61182100 0.0 1018270
02:00+13sw61277100 0.0 1017307
05:00+13ssw61278100 0.0 1015321
08:00+12ssw61279100 0.0 1014287
11:00+15sw71168100 0.0 1014338
14:00+17sw81263100 0.0 1013315
17:00+16ssw8126659 0.0 1013287
20:00+15ssw715735 0.0 1013276
6 october, thu
thu623:00+15ssw816731 0.0 1013307
02:00+15sw815765 0.0 1013339
05:00+15w81378100 0.0 1014378
08:00+14w7128410 0.2 1017678
11:00+14w1115735 0.5 1021935
14:00+16w1114601 0.5 1024882
17:00+15w913674 0.0 1025638
20:00+14wsw713740 0.0 1027586
7 october, fri
fri723:00+12wsw713820 0.0 1028593
02:00+11sw611855 0.0 1028332
05:00+10sw7118425 0.0 1027320
08:00+10sw7128395 0.0 1026361
11:00+13sw81368100 0.0 1025671
14:00+15ssw81158100 0.0 1022465
17:00+15sw7105975 0.0 1019365
20:00+13sw5116952 0.0 1018243
8 october, sat
sat823:00+11sw6137170 0.0 1017444
02:00+11sw815745 0.0 1015445
05:00+11wsw9167858 0.0 1015672
08:00+11wsw813796 0.0 1015650
11:00+13wsw9127274 0.0 10171027
14:00+15w81160100 0.1 1017636
17:00+14w7116944 0.1 1017616
20:00+12wsw6127814 0.2 1019616